This demonstration page uses our WeatherBlox Daily Observations layout. Learn more.

Hourly Observations for June 21, 2019

Temp ( °F °C ) Dew Point ( °F °C ) Humidity (%) Winds ( mph kmh ) Pressure ( in mb ) Visibility ( mi km ) Precip ( " mm )
12:15 am 00:15 Mostly Cloudy with Light Rain 68 20 66 18.8 93 93 E 12 19 29.62 1003 10 16.09344 0 0
12:35 am 00:35 Mostly Cloudy with Light Rain 69 20.6 65 18.5 88 88 ESE 15 24 29.59 1002 10 16.09344 0 0
12:55 am 00:55 Mostly Cloudy with Light Rain 68 20.1 66 19 93 93 SE 17 28 29.62 1003 10 16.09344 0.01 0.254
1:15 am 01:15 Cloudy with Light Rain 65 18.6 64 17.8 95 95 E 10 17 29.62 1003 10 16.09344 0.01 0.254
1:35 am 01:35 Mostly Cloudy with Light Rain 64 18 62 16.7 92 92 SE 9 15 29.62 1003 10 16.09344 0.01 0.254
1:55 am 01:55 Mostly Cloudy with Light Rain 63 17.2 61 16.1 93 93 ESE 9 15 29.62 1003 10 16.09344 0.02 0.508
2:15 am 02:15 Mostly Cloudy with Light Rain 63 17 61 16 94 94 ESE 10 17 29.62 1003 10 16.09344 0 0
2:35 am 02:35 Mostly Cloudy 63 17 61 16.1 94 94 NE 12 19 29.59 1002 10 16.09344 0 0
2:55 am 02:55 Cloudy with Rain 63 17.4 62 16.5 94 94 NNE 9 15 29.62 1003 10 16.09344 0.01 0.254
3:15 am 03:15 Cloudy with Heavy Rain 64 17.5 62 16.8 96 96 NNW 13 20 29.65 1004 3 4.828032 0.13 3.302
3:35 am 03:35 Cloudy with Rain 63 17.2 63 17 99 99 W 8 13 29.71 1006 2.5 4.02336 0.38 9.652
3:55 am 03:55 Cloudy with Rain 63 17.2 63 17 99 99 NNW 8 13 29.65 1004 5 8.04672 0.53 13.462
4:15 am 04:15 Cloudy with Rain 63 17.2 62 16.8 98 98 E 5 7 29.62 1003 7 11.265408 0.04 1.016
4:35 am 04:35 Mostly Cloudy with Light Rain 63 17.2 63 17.1 99 99 ESE 14 22 29.62 1003 10 16.09344 0.05 1.27
4:55 am 04:55 Mostly Cloudy with Light Rain 63 17 62 16.7 98 98 E 16 26 29.59 1002 10 16.09344 0.05 1.27
5:15 am 05:15 Partly Cloudy with Light Drizzle 62 16.8 62 16.5 98 98 ESE 12 19 29.59 1002 10 16.09344 0 0
5:35 am 05:35 Partly Cloudy 62 16.6 61 16.3 98 98 ESE 8 13 29.59 1002 10 16.09344 0 0
5:55 am 05:55 Mostly Cloudy with Light Rain 62 16.8 61 16.1 96 96 S 3 6 29.59 1002 10 16.09344 0 0
6:15 am 06:15 Mostly Cloudy with Light Rain 62 16.5 61 16.3 99 99 Calm 29.62 1003 10 16.09344 0.02 0.508
6:35 am 06:35 Mostly Cloudy with Light Drizzle 62 16.5 61 16.3 99 99 ESE 6 9 29.62 1003 10 16.09344 0.02 0.508
6:55 am 06:55 Partly Cloudy 61 16.3 61 16.1 99 99 SSE 9 15 29.62 1003 10 16.09344 0.02 0.508
7:15 am 07:15 Sunny 62 16.4 61 16 98 98 WSW 3 6 29.65 1004 10 16.09344 0 0
7:35 am 07:35 Sunny 62 16.5 61 16.1 98 98 S 3 6 29.65 1004 10 16.09344 0 0
7:55 am 07:55 Sunny 63 17 62 16.5 97 97 SSW 3 6 29.62 1003 10 16.09344 0 0
8:15 am 08:15 Sunny 63 17.2 62 16.6 96 96 SSE 7 11 29.62 1003 10 16.09344 0 0
8:35 am 08:35 Partly Cloudy 64 17.7 62 16.6 93 93 S 6 9 29.65 1004 10 16.09344 0 0
8:55 am 08:55 Sunny 65 18.4 62 16.8 90 90 SSW 7 11 29.62 1003 10 16.09344 0 0
9:15 am 09:15 Sunny 67 19.5 63 17.2 87 87 SSW 8 13 29.62 1003 10 16.09344 0 0
9:35 am 09:35 Sunny 68 20.2 63 17.4 84 84 SSW 6 9 29.62 1003 10 16.09344 0 0
9:55 am 09:55 Sunny 69 20.8 64 17.6 82 82 SSW 7 11 29.62 1003 10 16.09344 0 0
10:15 am 10:15 Sunny 70 21.1 64 17.6 81 81 WSW 6 9 29.62 1003 10 16.09344 0.01 0.254
10:35 am 10:35 Sunny 71 21.5 64 18 81 81 W 5 7 29.59 1002 10 16.09344 0.01 0.254
10:55 am 10:55 Sunny 72 22 65 18.3 80 80 SSW 6 9 29.62 1003 10 16.09344 0.01 0.254
11:15 am 11:15 Sunny 73 22.7 65 18.4 77 77 WSW 3 6 29.62 1003 10 16.09344 0 0
11:35 am 11:35 Sunny 74 23.2 66 18.8 76 76 SSW 5 7 29.62 1003 10 16.09344 0 0
11:55 am 11:55 Sunny 75 23.7 66 18.7 74 74 WSW 3 6 29.62 1003 10 16.09344 0 0
12:15 pm 12:15 Partly Cloudy 75 24 66 18.7 72 72 W 8 13 29.62 1003 10 16.09344 0 0
12:35 pm 12:35 Partly Cloudy 76 24.3 66 18.9 72 72 W 8 13 29.59 1002 10 16.09344 0 0
12:55 pm 12:55 Partly Cloudy 76 24.6 65 18.4 68 68 W 8 13 29.62 1003 10 16.09344 0 0
1:15 pm 13:15 Sunny 77 24.8 65 18.1 66 66 W 13 20 29.62 1003 10 16.09344 0 0
1:35 pm 13:35 Sunny 77 25 65 18.5 67 67 WNW 8 13 29.62 1003 10 16.09344 0 0
1:55 pm 13:55 Sunny 77 25 66 18.7 68 68 W 9 15 29.62 1003 10 16.09344 0 0
2:15 pm 14:15 Partly Cloudy 78 25.4 67 19.2 69 69 NNW 10 17 29.62 1003 10 16.09344 0 0
2:35 pm 14:35 Partly Cloudy 78 25.4 65 18.5 66 66 NNW 10 17 29.62 1003 10 16.09344 0 0
2:55 pm 14:55 Mostly Cloudy 78 25.6 65 18.6 65 65 NNW 9 15 29.62 1003 10 16.09344 0 0
3:15 pm 15:15 Cloudy 78 25.3 64 17.6 62 62 NNW 9 15 29.62 1003 10 16.09344 0 0
3:35 pm 15:35 Cloudy 78 25.7 62 16.5 57 57 N 6 9 29.62 1003 10 16.09344 0 0
3:55 pm 15:55 Cloudy 78 25.6 62 16.8 58 58 NNW 9 15 29.62 1003 10 16.09344 0 0
4:15 pm 16:15 Cloudy 78 25.3 63 17.3 61 61 N 9 15 29.62 1003 10 16.09344 0 0
4:35 pm 16:35 Mostly Cloudy 79 26.2 64 17.6 59 59 NNE 10 17 29.62 1003 10 16.09344 0 0
4:55 pm 16:55 Mostly Cloudy 77 25.2 63 17.3 62 62 NNW 9 15 29.62 1003 10 16.09344 0 0
5:15 pm 17:15 Cloudy 77 24.8 65 18.1 66 66 N 14 22 29.62 1003 10 16.09344 0 0
5:35 pm 17:35 Cloudy 76 24.2 62 16.9 64 64 N 14 22 29.68 1005 10 16.09344 0 0
5:55 pm 17:55 Cloudy 75 24 62 16.7 64 64 N 13 20 29.68 1005 10 16.09344 0 0
6:15 pm 18:15 Cloudy 74 23.5 57 14.1 56 56 N 18 30 29.68 1005 10 16.09344 0 0
6:35 pm 18:35 Mostly Cloudy 74 23.6 56 13.6 54 54 N 16 26 29.68 1005 10 16.09344 0 0
6:55 pm 18:55 Partly Cloudy 74 23.2 52 10.9 46 46 N 20 31 29.71 1006 10 16.09344 0 0
7:15 pm 19:15 Partly Cloudy 73 22.6 51 10.3 46 46 N 15 24 29.71 1006 10 16.09344 0 0
7:35 pm 19:35 Sunny 71 21.7 51 10.4 49 49 NNW 14 22 29.71 1006 10 16.09344 0 0
7:55 pm 19:55 Sunny 70 21 51 10.3 51 51 NNW 12 19 29.77 1008 10 16.09344 0 0
8:15 pm 20:15 Sunny 69 20.6 51 10.5 53 53 NNW 16 26 29.77 1008 10 16.09344 0 0
8:35 pm 20:35 Sunny 68 20 51 10.5 54 54 N 15 24 29.77 1008 10 16.09344 0 0
8:55 pm 20:55 Sunny 66 18.9 50 10.2 57 57 NNW 12 19 29.8 1009 10 16.09344 0 0
9:15 pm 21:15 Clear 64 17.8 49 9.5 58 58 NNW 10 17 29.83 1010 10 16.09344 0 0
9:35 pm 21:35 Clear 63 17.2 47 8.1 55 55 NNW 9 15 29.83 1010 10 16.09344 0 0
9:55 pm 21:55 Clear 62 16.9 45 7.3 53 53 NNW 9 15 29.83 1010 10 16.09344 0 0
10:15 pm 22:15 Partly Cloudy 61 16.3 45 7.2 55 55 NNW 8 13 29.85 1011 10 16.09344 0 0
10:35 pm 22:35 Mostly Cloudy 61 16.1 45 7.2 56 56 N 8 13 29.85 1011 10 16.09344 0 0
10:55 pm 22:55 Cloudy 62 16.7 45 7.3 54 54 N 6 9 29.85 1011 10 16.09344 0 0
11:15 pm 23:15 Cloudy 62 16.5 46 7.8 57 57 NW 8 13 29.88 1012 10 16.09344 0 0
11:35 pm 23:35 Cloudy 61 16 47 8.2 60 60 NW 6 9 29.88 1012 10 16.09344 0 0
11:55 pm 23:55 Cloudy 60 15.8 47 8.4 62 62 NNW 8 13 29.91 1013 10 16.09344 0 0

Powered by AerisWeather